TimeMST,TemperatureF,Dew PointF,Humidity,Sea Level PressureIn,VisibilityMPH,Wind Direction,Wind SpeedMPH,Gust SpeedMPH,PrecipitationIn,Events,Conditions,WindDirDegrees,DateUTC
12:53 AM,42.1,10.0,27,29.81,10.0,West,8.1,-,N/A,,Clear,260,2012-11-26 07:53:00
1:53 AM,39.0,10.0,30,29.82,10.0,West,9.2,-,N/A,,Clear,270,2012-11-26 08:53:00
2:53 AM,46.9,12.0,24,29.81,10.0,West,17.3,-,N/A,,Clear,280,2012-11-26 09:53:00
3:53 AM,45.0,12.0,26,29.82,10.0,West,16.1,-,N/A,,Clear,280,2012-11-26 10:53:00
4:53 AM,39.9,10.0,29,29.90,10.0,ENE,8.1,-,N/A,,Clear,60,2012-11-26 11:53:00
5:53 AM,32.0,10.0,40,29.99,10.0,Calm,Calm,-,N/A,,Clear,0,2012-11-26 12:53:00
6:53 AM,32.0,10.9,42,30.07,10.0,East,5.8,-,N/A,,Clear,100,2012-11-26 13:53:00
7:53 AM,37.9,17.1,43,30.09,10.0,NE,3.5,-,N/A,,Clear,40,2012-11-26 14:53:00
8:53 AM,41.0,23.0,49,30.11,10.0,NE,10.4,-,N/A,,Clear,50,2012-11-26 15:53:00
9:53 AM,46.0,25.0,44,30.14,10.0,ENE,9.2,-,N/A,,Clear,60,2012-11-26 16:53:00
10:53 AM,50.0,25.0,38,30.16,10.0,NE,9.2,17.3,N/A,,Clear,40,2012-11-26 17:53:00
11:53 AM,53.1,26.1,35,30.14,10.0,ENE,17.3,-,N/A,,Clear,70,2012-11-26 18:53:00
12:53 PM,54.0,26.1,34,30.15,10.0,NE,20.7,29.9,N/A,,Clear,50,2012-11-26 19:53:00
1:53 PM,52.0,25.0,35,30.18,10.0,ENE,21.9,28.8,N/A,,Clear,70,2012-11-26 20:53:00
2:53 PM,48.0,25.0,41,30.19,10.0,ENE,21.9,-,N/A,,Clear,60,2012-11-26 21:53:00
3:53 PM,45.0,25.0,46,30.24,10.0,ENE,19.6,-,N/A,,Clear,70,2012-11-26 22:53:00
4:53 PM,42.1,25.0,51,30.27,10.0,ENE,13.8,-,N/A,,Clear,70,2012-11-26 23:53:00
5:53 PM,39.9,25.0,55,30.34,10.0,ENE,12.7,-,N/A,,Clear,60,2012-11-27 00:53:00
6:19 PM,39.2,24.8,56,30.33,10.0,ENE,12.7,-,N/A,,Mostly Cloudy,60,2012-11-27 01:19:00
6:53 PM,39.9,27.0,60,30.38,10.0,ENE,16.1,-,N/A,,Overcast,60,2012-11-27 01:53:00
7:53 PM,39.9,28.0,63,30.39,10.0,ENE,11.5,-,N/A,,Overcast,60,2012-11-27 02:53:00
8:53 PM,39.9,27.0,60,30.40,10.0,East,5.8,-,N/A,,Overcast,80,2012-11-27 03:53:00
9:53 PM,37.9,27.0,65,30.40,10.0,ENE,6.9,-,N/A,,Mostly Cloudy,60,2012-11-27 04:53:00
10:32 PM,35.6,24.8,65,30.40,10.0,East,3.5,-,N/A,,Scattered Clouds,90,2012-11-27 05:32:00
10:53 PM,35.1,25.0,67,30.39,10.0,SE,3.5,-,N/A,,Clear,130,2012-11-27 05:53:00